Weather History for KLAX - December, 2013

Change the Weather History Date:

Thursday, December 12, 2013

  Actual Average Record
Temperature  
Mean Temperature 57 °F 57 °F  
Max Temperature 65 °F 65 °F 83 °F (2010)
Min Temperature 48 °F 49 °F 35 °F (1949)
Degree Days  
Heating Degree Days 8 8  
Month to date heating degree days 111 93  
Since 1 July heating degree days 211 275  
Cooling Degree Days 0 0  
Month to date cooling degree days 2 0  
Year to date cooling degree days 704 550  
Growing Degree Days 6 (Base 50)    
Moisture  
Dew Point 42 °F    
Average Humidity 51    
Maximum Humidity 83    
Minimum Humidity 19    
Precipitation  
Precipitation 0.00 in 0.05 in 1.49 in (2014)
Month to date precipitation 0.26 0.65  
Year to date precipitation 3.61 11.42  
Since 1 July precipitation 1.00 2.61  
Sea Level Pressure  
Sea Level Pressure 30.18 in    
Wind  
Wind Speed 6 mph (SSE)    
Max Wind Speed 13 mph    
Max Gust Speed 16 mph    
Visibility 10 miles    
Events Fog    
T = Trace of Precipitation, MM = Missing Value Source: NWS Daily Summary

Daily Weather History Graph

Daily Weather History Graph

Search for Another Location

Airport or City:

Trip Planner

Search our weather history database for the weather conditions in past years. The results will help you decide how hot, cold, wet, or windy it might be!

Date:

Astronomy

Dec. 12, 2013 Rise Set
Actual Time 6:49 AM PST 4:45 PM PST
Civil Twilight 6:21 AM PST 5:12 PM PST
Nautical Twilight 5:50 AM PST 5:44 PM PST
Astronomical Twilight 5:20 AM PST 6:14 PM PST
Moon 1:47 PM PST (12/12) 2:26 AM PST (12/12)
Length of Visible Light 10h 51m
Length of Day
9h 55m
Waxing Gibbous, 81% of the Moon is Illuminated
Dec 12
Waxing Gibbous
Dec 17
Full
Dec 25
Last Quarter
Jan 1
New
Jan 7
First Quarter

Hourly Weather History & Observations

Time (PST) Temp. Dew Point Humidity Pressure Visibility Wind Dir Wind Speed Gust Speed Precip Events Conditions
12:53 AM 57.9 °F 16.0 °F 19% 30.12 in 10.0 mi NNE 3.5 mph - N/A   Partly Cloudy
1:53 AM 53.1 °F 21.0 °F 29% 30.14 in 10.0 mi East 6.9 mph - N/A   Scattered Clouds
2:53 AM 53.1 °F 21.9 °F 30% 30.16 in 10.0 mi East 4.6 mph - N/A   Partly Cloudy
3:53 AM 53.1 °F 19.9 °F 27% 30.16 in 10.0 mi ENE 5.8 mph - N/A   Partly Cloudy
4:53 AM 48.2 °F 26.6 °F 43% 30.16 in 10.0 mi East 5.8 mph - N/A   Scattered Clouds
5:53 AM 53.6 °F 42.8 °F 67% 30.17 in 10.0 mi NE 4.6 mph - N/A   Scattered Clouds
6:38 AM 51.8 °F 44.6 °F 76% 30.19 in 10.0 mi East 3.5 mph - N/A   Scattered Clouds
6:53 AM 51.1 °F 45.0 °F 80% 30.19 in 10.0 mi ESE 8.1 mph - N/A Fog Patches of Fog
7:53 AM 52.0 °F 46.0 °F 80% 30.20 in 8.0 mi East 5.8 mph - N/A   Scattered Clouds
8:53 AM 57.9 °F 43.0 °F 58% 30.21 in 10.0 mi ESE 5.8 mph - N/A   Scattered Clouds
9:53 AM 60.1 °F 46.9 °F 62% 30.22 in 9.0 mi Calm Calm - N/A   Scattered Clouds
10:53 AM 63.0 °F 46.0 °F 54% 30.21 in 10.0 mi Calm Calm - N/A   Scattered Clouds
11:53 AM 64.0 °F 46.9 °F 54% 30.20 in 10.0 mi West 6.9 mph - N/A   Scattered Clouds
12:53 PM 64.0 °F 45.0 °F 50% 30.17 in 10.0 mi West 8.1 mph - N/A   Partly Cloudy
1:53 PM 63.0 °F 46.0 °F 54% 30.15 in 10.0 mi West 12.7 mph - N/A   Partly Cloudy
2:53 PM 62.1 °F 46.9 °F 58% 30.15 in 10.0 mi WSW 6.9 mph - N/A   Partly Cloudy
3:53 PM 60.1 °F 46.0 °F 60% 30.15 in 10.0 mi West 9.2 mph - N/A   Partly Cloudy
4:53 PM 59.0 °F 48.0 °F 67% 30.16 in 10.0 mi WSW 8.1 mph - N/A   Clear
5:53 PM 57.9 °F 51.1 °F 78% 30.16 in 10.0 mi West 4.6 mph - N/A   Clear
6:53 PM 57.9 °F 48.9 °F 72% 30.17 in 10.0 mi WSW 8.1 mph - N/A   Clear
7:53 PM 57.0 °F 48.9 °F 74% 30.18 in 10.0 mi WSW 5.8 mph - N/A   Clear
8:53 PM 57.9 °F 50.0 °F 75% 30.19 in 10.0 mi South 3.5 mph - N/A   Clear
9:53 PM 57.0 °F 50.0 °F 77% 30.21 in 10.0 mi Calm Calm - N/A   Partly Cloudy
10:53 PM 53.1 °F 48.0 °F 83% 30.18 in 10.0 mi ESE 5.8 mph - N/A   Partly Cloudy
11:53 PM 53.1 °F 48.9 °F 86% 30.18 in 10.0 mi ESE 3.5 mph - N/A   Partly Cloudy